Weather History for Santa Barbara, CA

Change the Weather History Date:

Saturday, April 13, 2013

  Actual Average Record
Temperature  
Mean Temperature 57 °F 57 °F  
Max Temperature 59 °F 67 °F 90 °F (1947)
Min Temperature 54 °F 47 °F 37 °F (1961)
Degree Days  
Heating Degree Days 8 8  
Month to date heating degree days 60 110  
Since 1 July heating degree days 1791 2007  
Cooling Degree Days 0 0  
Month to date cooling degree days 9 0  
Year to date cooling degree days 13 2  
Growing Degree Days 5 (Base 50)    
Moisture  
Dew Point 52 °F    
Average Humidity 87    
Maximum Humidity 93    
Minimum Humidity 80    
Precipitation  
Precipitation 0.00 in 0.03 in 0.93 in (2003)
Month to date precipitation 0.01 0.55  
Year to date precipitation 3.29 11.19  
Since 1 July precipitation 9.36 16.90  
Sea Level Pressure  
Sea Level Pressure 29.89 in    
Wind  
Wind Speed 4 mph (SSE)    
Max Wind Speed 12 mph    
Max Gust Speed -    
Visibility 8 miles    
Events      
T = Trace of Precipitation, MM = Missing Value Source: NWS Daily Summary

Daily Weather History Graph

Daily Weather History Graph

Search for Another Location

Airport:

Trip Planner

Search our weather history database for the weather conditions in past years. The results will help you decide how hot, cold, wet, or windy it might be!

Date:

Astronomy

Apr. 13, 2013 Rise Set
Actual Time 6:30 AM PDT 7:29 PM PDT
Civil Twilight 6:04 AM PDT 7:55 PM PDT
Nautical Twilight 5:33 AM PDT 8:26 PM PDT
Astronomical Twilight 5:02 AM PDT 8:58 PM PDT
Moon 8:32 AM PDT (4/13) 10:50 PM PDT (4/13)
Length of Visible Light 13h 51m
Length of Day
12h 59m
Waxing Crescent, 11% of the Moon is Illuminated
Apr 13
Waxing Crescent
Apr 18
First Quarter
Apr 25
Full
May 2
Last Quarter
May 9
New

Hourly Weather History & Observations

Time (PDT) Temp. Dew Point Humidity Pressure Visibility Wind Dir Wind Speed Gust Speed Precip Events Conditions
12:37 AM 53.6 °F 51.8 °F 94% 29.86 in 7.0 mi ENE 8.1 mph - N/A   Mostly Cloudy
12:51 AM 53.6 °F 51.8 °F 94% 29.86 in 6.0 mi East 6.9 mph - N/A   Mostly Cloudy
12:53 AM 54.0 °F 51.1 °F 90% 29.86 in 6.0 mi East 9.2 mph - N/A   Overcast
1:53 AM 54.0 °F 51.1 °F 90% 29.88 in 5.0 mi East 11.5 mph - N/A   Overcast
2:53 AM 54.0 °F 51.1 °F 90% 29.88 in 8.0 mi East 10.4 mph - N/A   Overcast
3:53 AM 54.0 °F 50.0 °F 86% 29.88 in 8.0 mi Variable 5.8 mph - N/A   Overcast
4:53 AM 55.0 °F 51.1 °F 86% 29.87 in 8.0 mi East 6.9 mph - N/A   Overcast
5:53 AM 54.0 °F 51.1 °F 90% 29.88 in 8.0 mi East 4.6 mph - N/A   Overcast
6:53 AM 55.0 °F 51.1 °F 86% 29.88 in 6.0 mi NE 3.5 mph - N/A   Overcast
7:53 AM 55.0 °F 52.0 °F 89% 29.89 in 6.0 mi NE 3.5 mph - N/A   Overcast
8:53 AM 55.9 °F 52.0 °F 87% 29.91 in 4.0 mi Calm Calm - N/A   Overcast
9:53 AM 55.9 °F 53.1 °F 90% 29.91 in 4.0 mi Calm Calm - N/A   Overcast
10:53 AM 57.0 °F 52.0 °F 83% 29.92 in 5.0 mi Calm Calm - N/A   Haze
11:00 AM 57.2 °F 51.8 °F 82% 29.92 in 10.0 mi South 3.5 mph - N/A   Overcast
11:40 AM 57.2 °F 51.8 °F 82% 29.91 in 10.0 mi SSE 4.6 mph - N/A   Overcast
11:53 AM 57.9 °F 52.0 °F 81% 29.91 in 10.0 mi Variable 3.5 mph - N/A   Overcast
12:28 PM 57.2 °F 51.8 °F 82% 29.91 in 10.0 mi SW 4.6 mph - N/A   Overcast
12:38 PM 57.2 °F 53.6 °F 88% 29.92 in 10.0 mi SSW 4.6 mph - N/A   Overcast
12:53 PM 57.9 °F 52.0 °F 81% 29.91 in 10.0 mi SSW 4.6 mph - N/A   Overcast
1:00 PM 57.2 °F 53.6 °F 88% 29.91 in 10.0 mi SSW 3.5 mph - N/A   Overcast
1:53 PM 57.9 °F 53.1 °F 84% 29.89 in 10.0 mi South 3.5 mph - N/A   Overcast
2:53 PM 57.9 °F 52.0 °F 81% 29.89 in 10.0 mi WSW 6.9 mph - N/A   Overcast
3:53 PM 57.0 °F 52.0 °F 83% 29.87 in 10.0 mi West 6.9 mph - N/A   Overcast
5:53 PM 57.0 °F 51.1 °F 81% 29.85 in 10.0 mi West 6.9 mph - N/A   Overcast
6:53 PM 55.9 °F 51.1 °F 84% 29.85 in 10.0 mi West 6.9 mph - N/A   Overcast
7:53 PM 55.9 °F 51.1 °F 84% 29.86 in 10.0 mi West 4.6 mph - N/A   Overcast
8:53 PM 55.9 °F 51.1 °F 84% 29.86 in 10.0 mi Calm Calm - N/A   Overcast
9:53 PM 55.9 °F 51.1 °F 84% 29.88 in 10.0 mi Calm Calm - N/A   Overcast
10:53 PM 55.9 °F 52.0 °F 87% 29.88 in 9.0 mi SSE 4.6 mph - N/A   Overcast
11:53 PM 55.9 °F 51.1 °F 84% 29.88 in 9.0 mi Calm Calm - N/A   Overcast